Lapse_Rate
1.2 1.0 1.5 -0.2 0.7 1.1 1.9 1.6 2.8 5.5 4.5 5.0 5.0 4.6 4.5 4.4 5.7 5.6 5.1 5.2 5.7 5.3
2.3 1.9 2.1 0.8 1.5 -0.1 0.5 2.2 2.5 5.3 5.1 4.4 4.9 4.7 4.4 4.4 4.7 6.1 5.5 5.3 5.4 5.1
3.2 2.9 2.2 2.1 1.2 1.2 0.5 0.2 1.5 1.7 5.4 4.6 4.8 4.5 4.2 4.4 3.6 4.7 5.7 5.8 5.0 5.3
4.6 3.8 3.9 3.2 2.8 2.4 2.1 0.4 1.8 3.2 5.7 5.0 5.4 4.7 4.6 4.7 4.9 5.3 5.5 5.4 5.0 4.6
5.6 4.7 4.9 5.0 4.0 3.9 1.4 2.1 1.0 2.9 5.0 6.0 5.0 5.2 5.0 5.2 5.2 4.7 4.5 5.1 4.8 5.1
5.5 5.5 5.6 5.5 4.2 3.7 3.7 2.1 2.6 2.3 4.1 6.1 5.7 5.3 5.7 5.6 5.7 5.2 5.3 5.5 4.6 4.4
5.5 6.0 6.0 5.9 5.1 4.1 3.5 3.0 2.8 3.0 3.9 6.2 5.9 4.9 4.9 5.6 5.4 5.0 5.3 5.1 5.5 5.2
5.4 6.3 6.3 5.9 5.4 5.0 3.9 3.6 2.2 3.1 3.5 6.1 6.0 5.3 4.5 4.9 5.6 5.4 5.0 4.6 4.9 5.4
5.2 6.2 5.7 5.5 5.4 5.4 3.6 3.8 3.3 2.3 3.3 5.6 6.0 4.4 3.1 4.0 5.6 5.5 5.4 5.3 5.3 5.2
5.0 5.8 5.4 5.3 5.4 5.6 4.6 4.7 3.3 3.4 4.1 5.9 5.7 3.8 2.9 2.9 4.7 5.2 5.6 5.5 5.2 4.7
5.2 5.6 5.0 4.9 5.4 5.5 4.8 3.7 3.8 4.3 4.6 5.8 5.7 3.0 2.8 2.2 4.7 4.9 5.5 5.6 5.4 4.8
5.7 5.5 4.9 4.8 5.3 5.3 4.4 3.5 3.2 3.5 4.9 5.2 6.1 4.9 3.5 2.6 4.6 4.8 4.6 5.2 5.2 5.1
5.8 5.1 4.8 4.7 5.6 5.4 4.9 4.2 3.7 2.5 0.9 3.0 2.9 3.2 3.0 3.0 4.6 4.9 5.0 5.1 5.0 2.7
5.6 5.2 4.6 4.6 5.6 5.8 5.0 4.9 3.9 2.1 -0.8 -1.4 -0.2 0.2 2.0 2.9 5.1 5.1 5.2 4.6 4.5 3.8
Wind_Speed
17 10 12 14 12 11 11 12 19 19 19 19 18 15 14 11 12 14 11 15 13 8
16 15 14 16 15 13 15 14 18 17 19 18 18 17 17 12 13 13 14 13 14 11
18 19 17 16 18 18 17 16 18 20 20 19 19 19 17 15 15 16 12 11 14 13
19 20 19 18 16 17 17 16 17 20 20 21 21 19 18 18 18 19 16 15 15 16
19 20 19 18 18 16 17 16 18 19 22 22 21 20 20 21 18 19 19 18 16 17
19 18 20 20 18 17 16 17 17 19 20 21 21 21 21 22 20 20 20 19 18 18
19 19 18 19 18 18 15 16 16 18 20 22 19 21 21 21 20 19 18 18 17 17
19 19 18 18 17 17 15 15 16 17 18 23 18 16 21 21 20 19 19 18 18 18
20 18 17 17 17 15 14 14 15 19 18 17 13 25 28 23 17 18 19 18 17 17
19 18 17 17 16 14 11 11 14 17 17 15 18 23 28 29 18 16 17 18 17 15
19 18 18 17 15 12 9 9 11 15 18 18 15 19 27 27 19 17 18 19 18 17
19 18 18 18 16 12 10 8 6 11 16 12 17 33 28 24 18 16 18 16 17 17
18 18 18 18 16 12 11 9 5 2 2 10 7 23 26 25 14 16 13 16 15 18
18 17 18 18 14 12 11 11 8 7 8 9 5 7 5 30 17 13 13 12 11 10
Wind_Direction
303 292 287 284 283 278 275 290 301 203 197 197 195 190 192 195 206 202 197 193 194 195
306 295 289 285 279 279 276 272 262 237 197 196 195 195 189 191 197 205 200 200 192 193
305 299 289 281 276 271 276 282 289 297 198 197 200 195 193 197 193 204 204 204 197 201
303 299 292 284 278 272 270 279 274 266 229 191 199 196 197 202 197 198 199 201 200 202
303 299 292 284 280 277 274 268 269 270 270 195 192 193 198 201 198 197 196 197 199 206
302 297 293 289 283 273 266 267 270 271 260 204 195 192 199 203 202 200 202 199 198 202
302 297 296 291 283 275 266 264 260 265 260 234 197 196 195 198 202 200 202 200 201 202
305 295 294 293 288 276 263 259 260 261 260 217 200 198 189 195 199 198 198 201 202 203
305 305 303 301 292 277 267 256 252 251 247 233 202 201 193 183 195 201 198 197 199 201
310 311 309 305 300 293 271 256 246 247 247 240 222 197 195 187 186 199 200 199 198 202
314 317 320 320 314 305 295 267 248 241 242 228 236 194 194 190 189 192 201 203 200 197
320 322 328 329 323 324 322 312 274 244 229 234 213 214 192 189 197 196 200 198 195 194
328 331 335 331 328 336 345 339 330 276 59 212 255 193 191 186 198 198 194 191 190 186
334 337 339 335 344 345 0 359 353 10 47 44 26 14 232 193 199 200 190 186 183 185